Weather in Bayombong

Philippines     16°29′14″N   121°09′10″E
temp.,
°C
wind,
m/s
gust,
m/s
humid.,
%
clouds,
%
prec.,
mm/h
press.,
hPa
HPBL,
m
9 august, tue
tue923:00+20w1198100 0.4 101222
02:00+20sw1197100 0.6 101016
05:00+20sw1197100 0.0 100918
08:00+21ssw1196100 0.0 101041
11:00+27sw1370100 0.0 1010779
14:00+27ssw1371100 0.5 1007887
17:00+24ssw1288100 0.6 100858
20:00+22ssw1195100 1.3 101037
10 august, wed
wed1023:00+21sw1195100 0.1 101117
02:00+21sw1194100 0.1 101021
05:00+20ssw1192100 0.0 101029
08:00+23sw1283100 0.0 1011134
11:00+27s1264100 0.0 1010624
14:00+27sse0265100 0.1 1008756
17:00+27w1177100 0.4 1009264
20:00+22ssw1194100 2.4 101126
11 august, thu
thu1123:00+21ssw1196100 4.6 101223
02:00+21sw1195100 5.3 101117
05:00+20ssw1195100 0.1 101111
08:00+23s0086100 0.1 1012197
11:00+28ne1165100 0.0 1011885
14:00+28ne2178100 1.3 1009761
17:00+25e1191100 6.1 100921
20:00+22n1196100 19.0 101229
12 august, fri
fri1223:00+21ssw119790 4.2 101316
02:00+20ssw1197100 6.7 101212
05:00+20ssw1197100 0.1 101213
08:00+23wsw1190100 0.1 1012242
11:00+30nne1161100 0.0 10111199
14:00+28e1175100 2.9 1008652
17:00+26e1188100 4.8 100851
20:00+22w019699 10.0 101114
13 august, sat
sat1323:00+22sw1299100 12.0 101254
02:00+21ssw1198100 21.9 101130
05:00+21ssw119883 0.8 101120
08:00+24ne008918 0.8 1011283
11:00+29nne226529 0.0 10101172
14:00+28ene227977 2.0 1008671
17:00+26ene129295 5.8 1009114
20:00+22sw119591 15.6 101114